Home > Weather > Västerås > Past weeks

Flag for Sweden Past Weather in Västerås, Sweden — Yesterday and Last 2 Weeks

Now
68 °F

Light rain. Partly sunny.


Feels Like: 68 °F
Forecast: 62 / 79 °F
Wind: 6 mph from Southwest

Location: Vasteras / Hasslo

Current Time: Aug 25, 2016 at 7:06:16 PM

Latest Report: Aug 25, 2016 at 6:20 PM


Visibility: N/A

Pressure: 30.07 "Hg

Humidity: 88%

Dew Point: 64 °F

Location of VästeråsLocation

Past Weather in Västerås — Graph

°F

Västerås Temperature Yesterday

Maximum temperature yesterday: 73 °F (at 2:50 PM)
Minimum temperature yesterday: 50 °F (at 3:20 AM)
Average temperature yesterday: 64 °F

High & Low Weather Summary for the Past Weeks

 TemperatureHumidityPressure
High73 °F (Aug 13, 3:20 PM)100% (Aug 12, 4:50 AM)30.27 "Hg (Aug 12, 4:50 AM)
Low37 °F (Aug 12, 4:50 AM)37% (Aug 12, 3:50 PM)29.62 "Hg (Aug 13, 3:50 AM)
Average60 °F74%29.96 "Hg
* Reported Aug 10 5:20 PM — Aug 25 5:50 PM, Västerås, Weather by CustomWeather, © 2016

Note: Actual official high and low records may vary slightly from our data, if they occured in-between our weather recording intervals... More about our weather records

Advertising

Västerås Weather History for the Previous 24 Hours

Scroll right to see more
 ConditionsComfort  
Time TempWeatherWind HumidityBarometerVisibility
5:50 PM
Thu, Aug 25
68 °FLight rain. Scattered clouds.6 mph88%30.09 "HgN/A
5:20 PM70 °FLight rain. Broken clouds.6 mph78%30.09 "HgN/A
4:50 PM70 °FDrizzle. Broken clouds.6 mph78%30.09 "HgN/A
4:20 PM72 °FLight rain. Broken clouds.6 mph73%30.09 "HgN/A
3:50 PM72 °FPassing clouds.7 mph69%30.09 "HgN/A
3:20 PM72 °FSunny.6 mph73%30.09 "Hg10 mi
2:50 PM73 °FPassing clouds.3 mph65%30.09 "HgN/A
2:20 PM72 °FPassing clouds.5 mph73%30.12 "HgN/A
1:50 PM72 °FPassing clouds.5 mph73%30.12 "HgN/A
1:20 PM68 °FPassing clouds.5 mph78%30.12 "HgN/A
12:50 PM68 °FPassing clouds.8 mph78%30.12 "HgN/A
12:20 PM66 °FScattered clouds.5 mph83%30.12 "HgN/A
11:50 AM64 °FPassing clouds.6 mph88%30.09 "HgN/A
11:20 AM63 °FClear.8 mph94%30.12 "HgN/A
10:50 AM63 °FLight rain. Clear.7 mph94%30.15 "Hg5 mi
10:20 AM63 °FLight rain. Partly sunny.9 mph88%30.15 "Hg5 mi
9:50 AM64 °FRain. Scattered clouds.8 mph78%30.15 "HgN/A
9:20 AM64 °FSunny.8 mph83%30.15 "Hg10 mi
8:50 AM64 °FSunny.8 mph83%30.15 "Hg10 mi
8:20 AM63 °FSunny.9 mph83%30.15 "Hg10 mi
7:50 AM63 °FSunny.9 mph83%30.15 "Hg10 mi
7:20 AM63 °FSunny.10 mph83%30.15 "Hg10 mi
6:50 AM61 °FSunny.9 mph88%30.15 "Hg10 mi
6:20 AM61 °FCool.9 mph83%30.15 "HgN/A
5:50 AM61 °FCool.8 mph83%30.15 "HgN/A
5:20 AM61 °FCool.10 mph83%30.15 "HgN/A
4:50 AM61 °FCool.10 mph83%30.15 "HgN/A
4:20 AM59 °FCool.9 mph88%30.15 "HgN/A
3:50 AM59 °FCool.7 mph88%30.15 "HgN/A
3:20 AM61 °FPassing clouds.8 mph83%30.18 "HgN/A
2:50 AM59 °FCool.6 mph88%30.18 "HgN/A
2:20 AM61 °FCool.7 mph83%30.18 "HgN/A
1:50 AM61 °FPassing clouds.6 mph83%30.18 "HgN/A
1:20 AM63 °FPassing clouds.5 mph83%30.18 "HgN/A
12:50 AM63 °FPassing clouds.6 mph83%30.18 "HgN/A
12:20 AM59 °FPassing clouds.5 mph82%30.18 "HgN/A
11:50 PM
Wed, Aug 24
63 °FPassing clouds.5 mph77%30.18 "HgN/A
11:20 PM61 °FPassing clouds.5 mph83%30.18 "HgN/A
10:50 PM64 °FPassing clouds.6 mph73%30.18 "HgN/A
10:20 PM66 °FPassing clouds.7 mph68%30.21 "HgN/A
9:50 PM64 °FClear.7 mph78%30.21 "Hg10 mi
9:20 PM66 °FClear.6 mph68%30.21 "Hg10 mi
8:50 PM66 °FSunny.5 mph73%30.21 "Hg10 mi
8:20 PM66 °FSunny.5 mph68%30.21 "Hg10 mi
7:50 PM68 °FSunny.6 mph64%30.21 "Hg10 mi
7:20 PM70 °FSunny.7 mph57%30.21 "Hg10 mi
Weather by CustomWeather, © 2016

See weather overviewHow to use our weather pages